This demonstration page uses our WeatherBlox Daily Observations layout. Learn more.

Left ArrowRight Arrow

36.17497, -115.13722

Hourly Observations for July 15, 2020

Temp ( °F °C ) Dew Point ( °F °C ) Humidity (%) Winds ( mph kmh ) Pressure ( in mb ) Visibility ( mi km ) Precip ( " mm )
12:53 am 00:53 Clear 93 33.9 19 -7.2 7 7 SSW 5 7 29.74 1007 10 16 0.00 0.00
1:53 am 01:53 Clear 87 30.6 22 -5.6 9 9 ENE 8 13 29.75 1008 10 16 0.00 0.00
2:53 am 02:53 Clear 84 28.9 25 -3.9 11 11 NW 5 7 29.76 1008 10 16 0.00 0.00
3:53 am 03:53 Clear 82 27.8 25 -3.9 12 12 NNW 8 13 29.77 1008 10 16 0.00 0.00
4:53 am 04:53 Clear 81 27.2 25 -3.9 13 13 NNW 9 15 29.78 1009 10 16 0.00 0.00
5:53 am 05:53 Sunny 80 26.7 24 -4.4 13 13 NNW 7 11 29.80 1009 10 16 0.00 0.00
6:53 am 06:53 Sunny 84 28.9 25 -3.9 11 11 NW 6 9 29.83 1010 10 16 0.00 0.00
7:53 am 07:53 Sunny 88 31.1 31 -0.6 13 13 Calm 29.85 1011 10 16 0.00 0.00
8:53 am 08:53 Sunny 92 33.3 31 -0.6 11 11 E 5 7 29.86 1011 10 16 0.00 0.00
9:53 am 09:53 Sunny 95 35 32 0 11 11 E 6 9 29.85 1011 10 16 0.00 0.00
10:53 am 10:53 Sunny 98 36.7 31 -0.6 9 9 Calm 29.85 1011 10 16 0.00 0.00
11:53 am 11:53 Sunny 100 37.8 32 0 9 9 ESE 6 9 29.84 1011 10 16 0.00 0.00
12:53 pm 12:53 Sunny 103 39.4 32 0 8 8 ESE 9 15 29.82 1010 10 16 0.00 0.00
1:53 pm 13:53 Sunny 105 40.6 33 0.6 8 8 SE 9 15 29.80 1009 10 16 0.00 0.00
2:53 pm 14:53 Sunny 106 41.1 35 1.7 9 9 E 9 15 29.78 1008 10 16 0.00 0.00
3:53 pm 15:53 Sunny 106 41.1 35 1.7 9 9 undefined N/A 29.75 1008 10 16 0.00 0.00
4:53 pm 16:53 Sunny 107 41.7 35 1.7 8 8 S 16 26 29.73 1007 10 16 0.00 0.00
5:53 pm 17:53 Sunny 106 41.1 33 0.6 8 8 Calm 29.72 1006 10 16 0.00 0.00
6:53 pm 18:53 Sunny 105 40.6 33 0.6 8 8 SE 13 20 29.72 1007 10 16 0.00 0.00
7:53 pm 19:53 Sunny 103 39.4 34 1.1 9 9 SSE 16 26 29.72 1007 10 16 0.00 0.00
8:53 pm 20:53 Clear 101 38.3 34 1.1 10 10 SSE 14 22 29.74 1007 10 16 0.00 0.00
9:53 pm 21:53 Clear 99 37.2 33 0.6 10 10 S 12 19 29.75 1008 10 16 0.00 0.00
10:53 pm 22:53 Clear 96 35.6 31 -0.6 10 10 S 6 9 29.76 1008 10 16 0.00 0.00
11:53 pm 23:53 Clear 93 33.9 31 -0.6 11 11 S 3 6 29.76 1008 10 16 0.00 0.00

Powered by AerisWeather